Wind_Speed
10 10 9 9 7 5 6 6 8 9 7 8 8 7 9 11 9 8 6 7 7 7 8 8 7 6 6 7 6 3 6 7 5 6 8 9 8 8 10 9 8 8 9 9 6 6 5 4 4 4 5 4 3 4 5 6 7 8 9 8 9 9 8 8 7 7 7 6 6 6 6 6 5 5 6 6 6 6 6 6 6 6 7 7 7
8 9 8 7 6 5 5 4 6 8 7 8 7 7 5 8 9 6 6 6 7 7 8 7 8 7 7 8 5 2 4 6 6 6 7 9 9 8 9 8 8 8 9 9 7 6 5 4 4 3 4 3 3 3 2 3 4 5 6 7 7 8 8 7 6 6 6 6 5 5 5 4 4 4 4 5 4 5 6 5 6 6 7 6 6
5 7 6 6 5 6 5 4 5 6 6 7 6 5 4 5 11 4 4 5 6 8 8 8 7 8 8 7 6 4 4 5 6 5 6 10 9 8 8 8 8 8 8 8 8 7 6 5 4 3 3 3 3 3 2 2 2 2 3 4 5 6 6 7 6 5 4 5 5 4 4 5 5 4 4 4 3 3 5 6 6 6 5 5 5
6 7 6 6 5 6 6 5 5 5 5 6 5 4 4 5 9 4 4 4 5 6 6 7 7 7 7 7 5 5 4 4 4 2 5 8 7 7 7 7 7 7 6 6 6 7 7 7 5 4 4 3 2 2 1 2 2 1 1 3 3 4 4 5 6 5 4 4 4 3 4 4 5 5 4 3 3 3 4 5 5 5 4 4 5
8 8 6 7 6 6 6 6 6 4 5 7 6 5 5 6 5 3 4 4 5 5 5 6 6 5 8 9 7 7 7 5 4 3 3 4 5 5 5 5 5 6 6 5 4 5 5 6 6 5 5 3 3 2 1 1 1 0 1 3 3 3 3 4 5 5 4 4 3 3 3 4 4 4 4 3 3 2 2 3 4 5 3 3 4
7 8 8 7 7 7 7 6 6 4 5 7 7 7 6 7 7 5 4 5 7 7 5 6 5 4 7 10 9 9 9 6 5 4 3 3 5 5 3 4 4 5 5 5 4 3 3 4 5 5 5 4 3 3 2 2 1 1 3 3 3 3 3 4 4 3 2 2 2 2 3 3 3 4 4 3 2 2 1 2 2 3 3 2 2
8 9 9 8 8 8 7 7 6 5 5 6 7 9 6 5 8 7 5 6 8 8 7 7 6 4 6 9 9 8 9 7 4 4 4 3 4 3 3 4 4 4 4 3 4 4 3 2 2 3 3 3 3 4 3 2 2 2 3 3 3 3 4 4 4 4 3 2 1 1 1 1 2 2 2 3 3 2 0 0 1 2 2 2 2
8 9 9 8 8 8 8 7 6 6 5 6 7 9 7 6 9 10 8 7 7 8 8 7 6 6 5 8 9 6 7 8 5 4 3 3 2 2 2 3 4 4 4 2 2 3 2 2 2 1 2 1 2 3 2 3 3 3 2 3 3 3 4 4 4 4 4 3 2 1 0 1 2 1 2 2 3 3 2 1 1 1 1 1 2
9 10 9 9 9 8 8 7 6 6 5 7 9 10 9 8 11 12 11 10 8 8 8 8 6 6 5 7 8 6 5 6 5 3 2 2 1 2 2 2 2 3 4 3 2 3 3 2 2 1 2 2 2 2 2 2 3 3 3 3 5 5 5 5 4 3 3 4 3 2 1 1 2 2 2 3 3 3 2 2 2 2 2 2 2
9 9 9 8 8 8 8 7 8 7 6 7 10 11 9 9 10 11 12 11 9 7 6 8 7 6 6 6 7 6 5 4 3 2 1 1 1 1 1 1 1 1 4 5 2 3 4 3 2 2 2 1 1 2 3 3 3 3 2 2 4 5 6 6 6 5 5 4 4 4 3 2 2 2 2 3 4 4 3 3 4 4 4 3 3
7 6 7 7 8 8 7 7 8 8 7 7 10 11 9 8 9 11 11 9 7 6 6 8 5 6 7 6 6 7 5 4 3 2 2 1 1 1 1 1 1 1 4 6 4 4 5 4 3 2 3 2 1 1 3 4 5 4 3 3 4 5 6 6 6 7 7 6 6 5 5 4 3 3 3 3 4 5 5 5 5 5 5 4 4
7 5 6 6 6 7 7 8 8 8 8 8 10 12 11 10 11 13 11 7 7 6 7 8 5 8 7 5 6 6 5 4 3 3 3 2 1 1 2 2 3 3 4 6 6 5 5 4 4 3 3 2 2 2 2 3 4 4 3 3 3 4 6 6 6 7 8 9 9 8 8 7 5 4 4 4 5 6 6 6 7 6 7 6 5
6 7 7 5 5 5 7 9 8 7 9 8 10 12 11 11 14 15 13 10 9 8 10 10 6 7 6 5 5 5 4 4 3 3 3 2 2 2 2 3 3 4 4 5 5 6 7 7 6 4 4 4 2 4 5 3 2 0 1 1 2 2 4 5 5 6 8 9 10 10 10 10 8 6 5 5 6 6 7 8 8 7 7 7 6
4 5 6 5 4 4 5 7 7 6 8 7 8 10 8 10 14 15 13 11 8 7 9 10 5 3 4 5 4 4 3 2 2 3 3 2 2 2 3 3 3 4 4 5 5 6 8 7 6 4 3 5 3 4 7 4 2 2 2 2 2 1 2 3 4 5 6 8 9 10 11 12 12 10 8 7 6 7 7 7 8 8 7 7 7
4 4 5 5 5 5 5 6 6 6 7 7 8 10 8 9 11 11 10 9 7 6 5 7 9 7 4 4 3 4 3 1 1 3 3 3 3 3 3 2 3 3 3 4 5 6 6 6 5 4 3 4 4 6 8 5 3 3 2 2 2 1 2 3 4 5 6 7 8 9 11 12 13 13 11 10 8 8 8 7 8 8 8 8 7
4 4 5 5 5 6 6 6 6 6 7 8 8 9 8 8 8 6 6 6 5 6 4 5 10 9 4 2 3 3 2 3 4 3 4 4 3 3 3 3 3 3 3 4 5 6 6 6 5 5 6 10 11 8 9 8 6 5 4 3 3 4 4 4 5 5 7 8 8 8 10 11 12 13 13 12 11 10 10 9 9 8 8 8 8
3 3 3 4 3 3 4 6 7 8 9 11 10 8 7 7 7 5 5 4 1 4 4 3 5 6 6 3 2 2 2 5 6 3 3 4 5 5 4 4 4 4 4 5 6 7 7 7 8 7 9 15 15 10 8 7 4 5 6 6 6 6 6 7 7 6 6 7 8 8 9 10 11 12 13 13 12 12 13 12 11 11 11 10 10
3 3 3 3 3 2 1 3 5 5 5 8 9 8 7 8 7 4 4 3 0 2 4 3 2 3 6 5 2 1 5 7 5 3 4 4 5 6 6 5 5 5 6 7 7 8 8 8 9 10 10 14 15 12 8 6 4 5 7 8 8 8 8 9 9 9 8 7 7 8 9 9 10 11 12 13 13 13 14 15 14 14 13 13 12
3 2 2 2 2 2 1 0 1 2 2 2 3 4 5 5 4 4 4 4 3 4 4 4 4 4 5 5 3 3 9 10 4 2 4 4 4 6 8 7 7 8 7 8 8 9 8 8 9 10 11 12 13 11 10 8 7 7 8 8 8 8 8 8 9 10 10 8 7 7 8 9 10 11 12 12 13 13 13 14 15 15 15 15 14
3 2 2 2 1 1 1 1 1 2 2 3 2 3 3 2 2 3 4 4 3 4 4 4 4 4 5 5 4 5 8 9 6 3 3 4 5 5 7 8 8 9 8 8 9 9 9 9 9 10 11 12 12 11 11 9 8 8 8 8 8 7 7 7 8 9 9 8 7 7 7 6 7 9 11 12 12 13 12 13 14 15 16 16 16
3 3 3 2 2 1 0 0 1 2 1 2 2 3 4 3 3 2 2 2 1 1 2 3 2 3 4 5 7 8 7 8 9 7 4 3 5 5 6 7 8 8 8 8 8 9 9 9 9 10 10 11 12 12 10 9 10 11 11 11 10 9 9 8 8 8 8 7 6 6 6 5 3 5 8 10 11 11 11 12 13 14 15 17 19
3 3 3 2 2 1 1 1 1 2 2 2 3 4 5 5 4 4 4 3 3 2 2 3 3 3 4 5 7 8 9 9 8 5 4 4 5 6 7 7 7 7 7 7 8 9 9 9 9 10 10 10 11 11 10 11 12 13 14 13 13 12 11 10 9 8 8 8 7 7 7 5 4 5 6 6 7 9 9 11 13 13 14 16 18
3 3 2 2 2 2 2 3 3 4 4 4 3 4 5 6 5 5 5 4 4 4 3 4 4 4 3 2 2 3 4 6 8 8 7 5 6 6 8 8 9 8 6 6 7 8 9 9 9 9 9 10 10 10 11 13 13 13 13 13 14 14 13 13 12 11 10 9 9 8 7 7 7 7 5 4 5 6 7 8 10 11 13 15 15
3 3 2 2 2 3 3 4 5 5 5 4 4 4 4 6 7 6 6 6 6 6 5 4 4 4 3 4 4 5 4 4 6 6 4 7 7 6 8 9 8 9 8 7 8 8 8 9 9 9 9 9 9 9 10 11 12 12 13 13 14 13 14 14 13 13 13 12 11 11 10 9 8 8 6 5 6 7 7 7 8 8 9 11 13
4 3 2 2 2 3 3 4 5 6 6 6 6 6 5 5 7 7 6 7 7 6 6 6 5 5 4 3 4 5 4 4 3 2 4 7 6 5 8 8 7 8 8 7 8 8 8 8 8 8 9 8 8 8 8 8 11 12 12 13 13 13 13 13 13 13 13 14 13 13 13 12 11 10 8 7 7 8 8 8 9 9 9 9 9
5 4 3 3 3 3 3 4 5 6 7 7 8 8 7 7 8 8 8 8 8 9 8 7 7 6 4 4 5 6 6 5 3 3 5 6 5 5 7 7 5 7 8 8 7 7 8 8 8 8 8 8 7 7 6 6 9 11 11 11 11 11 12 12 12 12 12 13 13 13 13 13 12 12 11 10 10 10 10 9 9 9 10 10 10
5 4 3 3 4 4 4 4 5 6 7 8 8 8 8 9 9 9 9 9 9 10 9 8 8 7 6 6 7 7 6 5 3 3 4 5 4 5 6 5 4 4 5 6 7 7 6 7 7 7 6 6 6 6 5 4 6 10 9 8 10 10 10 11 11 11 11 11 11 12 12 12 12 12 12 11 12 12 11 11 11 10 11 11 11
6 5 4 4 4 4 5 5 5 6 7 7 8 8 8 9 9 8 9 9 9 9 9 9 9 8 8 7 7 8 7 6 5 5 4 4 5 5 5 5 4 4 4 4 5 6 4 5 7 6 6 6 5 4 4 3 4 7 5 3 9 10 9 10 10 10 11 11 11 11 11 11 11 11 11 12 12 12 12 13 13 13 13 13 14
6 6 5 5 4 5 6 6 6 7 7 7 8 8 8 8 8 8 8 8 9 9 9 9 9 9 8 8 8 9 8 8 8 7 6 6 6 5 3 4 2 2 4 3 3 5 4 4 5 6 5 5 4 3 3 3 3 4 3 3 9 11 10 10 11 12 12 12 12 12 11 11 12 12 12 12 12 13 13 13 13 13 14 14 15
7 7 7 6 5 5 6 7 8 8 8 8 9 9 9 9 9 8 8 8 9 9 9 9 9 9 8 9 9 9 9 9 9 8 7 6 5 3 1 1 3 5 2 6 4 4 4 4 5 5 4 4 4 4 3 3 2 4 3 3 6 11 10 8 11 14 14 13 13 13 14 13 14 14 13 14 13 14 14 14 14 14 14 14 15
8 8 8 7 6 6 7 7 8 9 8 8 9 9 9 9 9 9 9 8 9 9 9 9 9 9 9 9 10 10 9 9 9 8 7 6 5 4 3 4 5 7 5 5 4 3 4 3 4 4 3 3 2 3 3 3 3 3 3 2 4 10 11 8 11 15 15 15 14 14 15 15 16 16 16 16 16 16 16 16 16 16 16 16 16
10 9 8 8 7 7 7 8 8 9 9 9 9 9 10 10 10 10 9 9 10 10 9 9 9 9 9 9 9 8 7 7 8 7 6 6 5 5 5 5 5 6 5 4 4 5 4 3 2 2 2 1 0 1 1 1 3 4 2 2 5 9 9 8 10 13 14 16 15 14 15 16 16 17 17 18 18 18 18 18 18 18 18 18 18
11 11 9 8 8 8 8 8 8 9 9 9 9 10 10 10 10 10 10 10 10 10 9 9 9 8 8 8 8 7 5 6 6 4 5 5 4 4 4 3 4 3 2 3 5 5 3 1 0 1 1 1 2 1 1 1 3 4 2 1 4 6 6 7 10 12 13 14 15 14 14 15 16 17 17 18 18 18 19 19 19 20 20 20 20
11 11 10 9 9 9 9 8 9 9 9 9 9 9 10 11 11 10 10 10 10 10 9 9 8 7 7 7 7 5 4 4 2 2 5 4 3 4 2 1 3 1 1 1 2 4 4 1 1 2 1 2 3 1 0 1 2 5 4 3 4 4 3 5 8 10 12 13 14 15 14 14 14 14 15 16 16 17 18 19 19 20 21 21 21
9 10 10 10 9 9 9 9 9 9 9 9 9 9 10 11 11 10 9 10 10 9 9 9 8 7 7 6 6 5 4 3 1 2 3 1 3 3 3 1 2 2 2 2 2 1 3 3 3 4 4 1 4 4 2 3 2 4 5 5 5 6 5 7 8 10 11 14 16 17 17 16 16 14 15 16 16 16 16 16 17 18 19 20 21
9 9 9 10 10 9 9 9 9 9 9 9 9 10 11 11 10 10 10 10 10 9 8 8 8 8 7 6 6 5 4 4 2 1 3 1 3 1 3 2 1 2 1 2 3 2 2 2 2 3 2 1 4 4 4 6 6 5 4 3 5 7 7 7 9 11 14 16 18 19 19 19 18 17 19 20 19 17 16 14 14 15 17 18 19
10 9 9 10 11 10 10 10 10 10 10 10 10 10 10 10 10 10 10 9 9 8 7 7 7 7 7 6 6 6 5 4 3 3 3 2 2 2 3 4 4 4 3 3 3 2 4 4 2 3 5 6 6 5 6 9 9 8 8 6 8 10 9 8 10 13 16 17 16 16 19 19 18 19 22 22 20 20 17 14 14 17 17 17 17
10 10 10 11 11 11 11 11 11 11 11 11 11 11 10 10 10 10 9 9 8 7 7 7 6 6 6 5 5 5 5 5 4 4 3 3 3 3 3 5 5 2 3 3 4 3 5 6 5 4 5 7 7 7 8 8 9 12 12 9 9 13 13 12 12 13 15 14 13 14 17 17 17 20 23 21 21 21 18 15 18 21 19 16 15
11 12 12 11 11 12 12 12 12 12 13 13 12 12 12 11 10 10 9 9 8 7 7 6 6 6 5 5 4 5 5 5 6 6 6 5 6 6 6 6 7 5 3 5 6 6 7 7 6 6 7 7 6 7 8 9 8 11 12 10 10 13 15 13 13 14 14 14 13 14 15 16 18 21 22 20 21 20 16 16 19 20 19 17 17
12 13 13 13 13 12 13 13 13 13 14 13 13 13 13 12 12 11 10 9 8 7 7 6 5 5 4 3 3 4 5 7 7 7 6 6 7 7 7 7 8 7 6 6 6 7 8 8 8 8 8 9 7 7 7 8 9 11 12 13 14 17 16 15 15 15 15 14 13 14 15 16 18 21 21 20 21 19 16 18 18 16 15 16 18
12 13 13 14 14 14 14 14 14 14 14 14 14 15 14 13 13 12 10 9 7 6 5 4 4 4 4 3 3 5 6 8 9 9 9 8 8 8 8 7 8 8 7 7 7 8 9 10 10 9 8 10 9 7 7 9 9 10 12 14 16 17 17 17 16 15 15 16 15 13 14 15 17 19 19 18 18 17 16 17 15 13 14 16 19
11 12 13 14 15 16 15 15 15 15 15 15 16 16 16 14 13 12 11 9 7 6 3 1 1 3 3 3 5 7 8 9 11 13 13 12 12 12 12 10 9 9 8 8 9 10 10 11 11 10 9 9 9 8 8 8 8 8 10 13 16 16 17 18 17 15 15 16 15 15 17 18 19 19 18 16 16 16 15 14 13 14 17 20 23
11 12 14 15 16 16 17 17 17 17 15 16 18 19 18 16 13 11 11 10 10 8 5 7 7 5 5 7 7 7 7 8 9 10 10 9 10 12 13 14 14 12 11 9 9 9 10 11 11 10 9 10 10 9 9 10 8 7 8 12 15 16 17 18 17 17 16 15 16 19 22 22 19 18 18 16 16 15 14 15 16 19 22 24 25
12 13 15 16 16 16 17 18 18 18 16 19 22 22 21 19 14 10 9 9 9 11 13 15 13 9 9 9 7 8 8 8 8 8 9 9 8 9 11 13 15 16 16 14 9 5 4 6 7 8 8 9 8 6 6 7 6 7 10 13 14 14 15 16 17 18 18 18 19 21 23 21 18 17 17 17 16 15 16 18 20 21 23 24 25
14 15 16 16 16 16 17 17 18 18 17 21 26 26 23 20 16 12 10 9 10 9 10 13 12 11 11 9 9 10 9 10 9 8 8 8 7 7 9 11 15 18 19 18 15 10 5 3 4 5 5 6 6 4 3 5 7 9 12 13 13 14 15 16 18 21 22 20 19 20 20 18 16 16 17 17 17 17 17 18 20 22 23 24 25
14 15 16 16 16 16 16 16 16 16 16 19 25 25 23 20 19 16 12 11 12 11 11 12 12 12 11 9 9 9 8 7 7 6 7 7 6 6 7 9 12 14 15 14 13 12 10 6 4 4 2 3 4 4 3 6 8 9 10 12 13 15 17 18 20 22 22 18 17 18 19 18 16 16 17 17 18 18 17 18 21 22 23 23 22
13 15 17 18 18 17 18 17 18 18 17 18 22 24 23 22 22 20 16 14 14 14 13 13 13 12 9 8 8 8 7 7 7 8 7 5 4 5 6 7 6 6 9 9 7 7 6 4 3 2 1 2 4 3 4 5 6 8 10 12 14 16 18 19 19 19 18 16 16 17 18 18 17 18 19 18 18 19 19 19 20 22 24 23 21
12 14 17 20 21 20 21 21 21 21 20 20 24 27 26 25 25 23 19 15 14 14 13 12 12 10 8 7 7 7 7 6 6 8 10 7 5 6 8 9 7 7 9 10 9 9 7 6 6 5 6 8 8 8 8 9 10 11 11 13 14 16 17 18 17 17 17 16 15 17 19 19 18 19 20 19 19 20 21 20 21 22 23 21 20
12 13 15 18 19 20 21 23 22 21 21 22 25 26 23 23 25 26 21 17 16 15 15 13 12 11 10 9 8 8 7 6 6 8 11 10 7 7 9 8 7 6 7 9 8 8 8 7 7 8 8 9 9 10 11 12 13 13 12 12 13 14 15 16 16 16 16 16 15 16 19 19 17 18 20 20 20 20 21 20 20 20 19 19 20
13 14 14 15 16 17 19 21 21 21 22 22 23 22 21 21 24 24 22 19 16 15 16 14 11 12 13 12 10 9 8 8 7 9 12 10 7 7 8 8 7 6 5 6 6 6 6 6 7 8 9 10 11 12 13 12 11 11 10 11 12 13 14 14 15 16 16 16 15 15 16 16 16 17 19 21 20 19 19 18 18 18 19 20 22
13 14 15 15 16 17 17 17 19 19 19 19 20 20 19 21 23 24 22 19 17 16 15 14 11 12 14 14 13 10 9 9 9 11 13 10 6 7 7 7 7 7 7 6 4 2 3 5 6 8 9 11 12 12 12 12 12 13 11 10 10 12 13 14 15 16 14 13 14 14 14 16 18 18 19 19 17 16 17 17 17 18 20 21 22
Wind_Direction
195 197 195 198 210 209 200 205 203 194 197 216 219 232 254 259 231 192 177 175 172 173 164 165 171 167 185 180 162 128 93 122 147 130 127 122 115 118 130 141 141 137 133 127 127 131 130 129 124 92 91 110 113 99 76 71 79 78 75 71 65 60 54 48 42 41 45 49 54 62 67 70 77 84 85 85 84 84 84 77 74 77 74 69 65
200 198 201 208 212 214 215 218 214 205 204 209 218 221 235 275 255 196 171 173 165 164 159 170 171 160 177 164 135 110 114 132 151 148 148 143 128 111 115 129 134 136 138 135 132 130 128 129 130 114 95 97 98 102 99 80 81 83 75 68 64 59 54 47 37 34 38 39 45 56 60 54 60 72 82 92 91 91 96 85 74 73 71 67 68
203 196 201 207 207 213 217 217 221 217 215 210 211 209 184 263 268 232 166 172 161 161 165 172 163 155 167 142 121 149 155 134 131 146 154 146 134 119 111 111 118 131 141 140 138 137 133 128 126 126 114 95 95 107 121 125 114 94 69 65 58 52 49 42 36 28 28 34 35 43 48 43 47 54 60 73 79 91 100 97 89 80 72 63 62
202 203 204 204 201 206 209 215 220 209 213 212 197 190 172 226 270 268 168 165 157 160 159 162 160 159 157 137 128 132 129 131 126 134 146 141 137 134 131 115 105 112 129 136 142 146 143 138 135 135 127 104 109 121 98 127 147 130 40 36 32 38 35 30 33 27 22 28 27 31 39 39 37 39 41 49 60 75 100 105 105 96 82 64 61
204 205 207 206 200 202 207 211 218 203 199 209 186 169 174 190 237 254 173 155 152 156 144 149 160 160 144 137 139 125 119 126 116 99 121 137 139 140 147 140 120 106 107 106 123 145 149 147 148 146 141 128 131 150 119 94 113 102 12 19 17 20 15 13 20 22 23 23 26 26 22 29 25 24 27 32 47 59 94 106 109 106 101 83 79
212 206 208 206 200 203 209 208 212 200 187 198 177 166 180 176 195 227 194 163 156 160 155 146 149 144 120 118 128 128 124 121 109 105 96 109 131 135 141 154 148 128 113 95 94 115 131 146 152 148 148 148 139 142 140 112 102 355 13 31 32 22 14 12 8 10 29 29 35 32 8 13 8 10 15 13 16 27 77 103 114 121 129 118 111
212 203 202 201 202 203 208 206 200 192 182 191 175 175 196 189 199 225 220 190 170 165 162 145 143 140 106 106 118 120 119 122 111 103 98 103 127 138 145 164 160 148 152 137 118 114 102 110 129 141 150 159 151 152 163 162 194 297 348 360 11 17 8 9 13 16 21 22 31 36 6 351 343 347 346 351 351 331 305 103 130 143 151 140 135
208 202 197 199 206 202 204 200 189 189 179 181 180 180 197 208 211 220 226 215 182 164 158 146 141 132 111 110 117 114 112 115 102 83 93 107 127 138 141 173 166 158 171 179 154 141 122 109 105 123 158 167 164 168 185 193 204 231 261 282 304 325 331 337 351 10 16 15 13 4 220 260 293 288 274 310 332 322 297 281 224 204 197 168 160
205 200 189 197 205 194 196 191 183 197 181 176 186 183 189 202 205 208 223 226 197 174 159 148 147 135 121 113 116 118 108 103 96 89 109 106 123 148 140 163 170 165 168 178 190 177 179 168 140 172 209 223 218 201 219 230 220 220 226 253 278 290 293 295 300 315 339 357 7 359 344 247 287 282 261 270 289 297 283 264 241 238 240 214 184
207 203 186 196 203 186 187 183 183 198 184 178 189 187 190 201 200 202 218 218 198 193 167 152 159 147 131 120 118 119 114 110 116 130 137 99 65 103 141 165 209 181 163 168 183 177 180 186 165 159 171 186 216 217 232 250 251 253 253 260 269 276 277 271 272 278 288 310 330 336 341 338 319 297 272 264 259 264 260 238 230 238 242 235 217
205 209 183 189 198 182 174 173 188 202 194 188 188 181 184 200 211 215 215 202 190 198 171 156 147 129 131 130 123 119 120 125 131 140 130 100 79 71 124 143 143 140 147 147 143 153 161 164 155 132 125 124 78 198 220 237 245 257 268 276 277 275 274 266 265 268 266 266 267 281 301 316 324 306 284 267 248 257 260 239 232 236 234 235 231
186 191 174 186 194 181 168 163 182 204 200 192 184 176 178 191 207 215 211 196 204 202 167 157 114 105 118 112 110 110 113 119 122 132 125 117 119 101 94 73 77 91 106 118 127 140 135 118 127 122 113 114 60 89 154 223 231 244 258 264 277 276 272 260 254 263 265 265 258 256 274 289 300 299 290 275 252 249 248 239 235 233 232 232 230
168 168 165 178 190 191 182 165 166 194 200 191 185 179 174 178 191 204 203 193 203 203 174 163 121 108 118 96 95 93 104 128 124 117 119 121 116 95 87 66 63 71 69 79 106 131 122 106 120 128 112 121 114 107 115 128 152 232 292 279 292 295 289 273 260 263 267 272 264 254 262 273 281 285 283 279 268 253 242 241 245 244 241 233 229
153 156 155 163 179 192 183 162 153 183 201 190 180 180 179 183 189 199 198 185 189 194 175 159 139 143 137 115 116 105 107 145 127 119 133 129 123 110 100 85 69 64 58 61 72 100 108 104 119 130 113 130 146 120 112 99 59 350 324 314 300 309 313 295 278 270 267 272 273 264 259 260 267 273 274 274 271 262 252 251 257 262 258 247 243
143 144 149 160 177 178 168 163 156 178 209 204 178 176 191 201 201 203 191 180 182 188 186 158 155 162 143 132 156 144 132 156 120 119 125 120 124 121 111 97 84 74 63 67 67 73 84 88 106 117 99 119 136 119 105 75 10 343 334 329 325 340 327 307 290 275 264 261 267 272 268 262 260 263 268 268 266 266 261 255 258 266 267 262 260
127 137 150 163 178 175 167 166 167 180 200 205 191 182 191 203 211 213 195 194 183 170 188 174 158 154 148 148 149 160 170 150 137 126 131 134 123 107 97 91 90 90 84 85 85 81 82 77 80 86 89 107 123 116 87 59 23 12 28 32 24 17 359 341 320 295 281 271 266 266 269 271 264 259 261 262 263 264 263 259 256 263 268 267 266
86 103 121 146 155 161 168 158 165 185 188 188 192 196 204 207 209 213 212 234 251 153 172 185 167 146 142 149 139 173 179 151 146 133 130 132 119 109 95 82 77 76 77 79 81 79 77 74 70 68 77 94 109 110 89 77 50 31 40 42 38 30 21 10 357 337 311 295 285 270 264 270 268 264 263 263 264 263 264 265 260 261 265 266 267
74 79 83 106 106 105 158 144 154 184 193 187 187 195 216 217 202 200 223 234 126 172 172 161 193 156 155 170 168 163 162 165 171 146 121 101 94 100 91 83 77 71 70 67 65 66 66 69 69 69 70 80 94 100 91 83 67 49 40 32 30 28 25 20 12 3 346 324 308 289 272 266 264 265 267 268 268 266 265 266 263 261 259 258 259
83 88 86 86 79 85 76 63 169 191 211 207 188 196 229 233 195 183 218 212 176 199 196 171 184 189 181 171 128 131 158 162 161 131 134 116 95 87 77 71 68 66 67 68 66 62 62 67 70 72 73 77 86 89 80 63 45 38 34 26 21 17 16 13 7 6 2 356 349 328 301 275 262 259 261 264 266 268 270 270 266 261 257 257 256
101 103 103 94 74 63 46 319 259 237 216 208 200 194 215 237 185 172 203 202 187 207 196 178 176 174 174 169 154 144 147 148 145 166 188 140 124 104 82 77 71 67 65 67 70 67 62 65 70 72 73 75 77 77 75 64 40 29 29 22 15 8 2 1 359 4 4 5 12 6 348 318 281 264 261 264 265 267 273 279 277 270 265 263 260
117 118 114 104 98 84 15 338 301 290 241 179 163 156 166 175 159 152 161 154 148 169 160 161 175 164 160 172 169 150 152 172 166 169 205 159 131 120 110 101 86 78 76 76 76 73 67 62 65 71 73 75 74 69 66 59 43 35 33 24 18 14 6 3 2 1 2 2 7 14 13 4 321 278 270 271 272 272 272 275 277 276 271 264 261
126 134 139 118 103 92 88 96 62 20 51 94 127 136 143 148 140 130 122 124 129 115 130 144 150 162 165 174 173 159 170 181 161 165 213 169 130 135 138 125 104 92 91 94 93 85 77 69 64 64 66 70 74 66 51 48 46 41 39 33 29 27 22 18 13 5 3 2 3 8 14 8 342 316 296 281 278 280 280 277 274 271 266 261 260
131 143 144 118 94 84 98 104 91 77 77 94 120 130 135 136 130 127 123 120 120 115 106 111 132 156 163 141 106 112 139 144 148 185 204 145 125 143 138 125 119 112 101 94 91 86 80 75 71 67 65 64 71 69 46 41 46 43 41 39 36 35 32 29 24 18 15 11 9 12 16 11 1 354 344 326 310 308 312 310 297 279 266 262 262
143 144 135 124 112 107 113 110 96 90 93 99 101 107 122 129 128 126 124 118 116 123 123 114 125 129 93 69 76 90 94 115 149 186 170 127 137 151 134 129 124 116 113 105 91 81 71 67 67 64 66 64 66 71 58 42 40 39 39 38 36 35 34 34 29 25 22 18 14 14 15 13 8 8 4 350 338 338 346 348 340 320 295 284 279
150 146 137 139 134 125 124 111 100 94 93 93 90 92 99 109 115 115 117 114 107 110 111 101 97 99 100 97 97 102 95 94 118 109 105 131 154 148 128 128 126 124 131 129 107 89 70 61 59 55 56 60 62 68 66 44 28 28 32 32 31 30 29 30 28 25 22 19 16 14 12 12 9 5 2 354 345 346 350 349 345 341 334 322 308
145 144 145 148 142 132 124 110 105 101 97 96 90 89 91 90 91 94 96 93 87 89 94 94 92 93 95 84 78 78 77 83 101 105 121 142 151 138 123 120 135 144 144 133 111 91 75 61 55 57 56 55 61 64 67 51 23 21 27 22 19 23 22 22 23 21 20 17 15 12 9 8 8 5 2 357 350 344 340 336 332 329 328 326 322
140 138 137 140 134 127 124 115 110 107 104 105 99 92 93 91 87 88 89 89 90 94 95 93 89 86 82 81 85 84 82 91 98 98 128 141 134 128 122 127 149 140 125 114 98 85 85 77 61 60 65 67 69 63 69 68 23 27 41 19 0 8 13 12 13 11 12 12 9 8 5 2 2 0 359 356 352 347 340 336 331 324 320 320 320
137 136 135 137 137 132 127 121 116 114 112 110 104 99 97 97 96 94 94 94 97 98 98 96 92 89 87 87 93 85 76 80 77 69 80 104 119 125 129 146 149 122 114 104 94 88 82 86 81 70 67 73 73 55 59 71 25 33 56 350 340 355 357 356 359 357 357 359 358 357 356 354 353 351 350 348 345 345 341 338 335 330 325 321 319
139 138 136 136 136 132 127 126 123 119 117 111 107 107 105 103 103 99 96 95 95 96 98 99 96 94 92 90 94 89 78 77 76 73 70 83 115 130 146 170 169 148 159 142 104 102 73 55 76 82 78 75 75 66 57 54 43 56 67 310 333 351 352 351 355 353 347 345 344 343 341 340 340 338 337 336 334 333 331 328 327 325 322 320 317
147 142 139 137 138 137 131 130 128 124 121 116 114 115 112 109 107 102 101 100 99 97 98 99 97 96 94 90 89 85 79 79 79 83 81 81 106 109 40 123 338 332 136 129 104 97 87 57 57 67 79 81 75 78 64 23 36 76 59 324 325 345 354 359 360 358 353 348 342 338 335 331 329 327 325 323 321 319 318 316 314 312 312 311 311
156 149 144 144 150 148 140 137 135 130 127 124 122 121 119 117 114 111 110 111 109 107 105 105 103 100 95 91 91 88 86 88 85 84 86 81 94 94 65 67 26 7 49 108 111 86 79 77 67 57 64 79 69 81 82 25 22 59 50 327 315 342 351 355 354 353 350 350 347 341 339 334 331 329 326 323 320 315 312 309 307 305 303 302 302
166 156 150 155 161 160 153 149 143 138 135 133 131 128 126 125 124 122 122 122 119 117 116 115 113 111 106 99 96 93 90 93 90 86 86 73 71 82 76 71 57 38 45 82 111 96 78 75 93 82 67 78 69 67 103 30 8 16 18 305 315 337 340 326 329 334 336 343 346 343 340 337 334 332 330 327 324 320 317 312 309 306 302 300 297
171 159 157 165 170 170 167 159 150 145 141 138 138 136 133 130 128 128 129 129 125 120 120 121 119 116 112 106 102 95 86 97 106 107 105 99 86 89 92 93 87 58 40 87 113 112 95 55 184 147 82 271 241 55 30 303 322 323 305 283 311 326 326 307 305 309 318 330 340 343 340 335 332 330 329 327 323 320 318 315 313 310 307 305 302
174 167 165 169 175 176 172 165 157 151 146 145 144 141 137 132 130 133 133 132 127 124 127 126 123 120 115 114 111 101 91 101 120 112 115 145 173 131 119 92 94 87 3 66 153 147 136 147 247 230 217 293 275 260 281 296 330 318 290 277 300 309 317 318 305 297 303 314 327 336 336 333 331 327 325 326 323 320 318 314 312 310 309 308 305
176 175 170 171 177 179 175 169 163 159 153 151 149 145 142 138 136 137 135 133 131 133 137 136 133 131 126 124 121 114 113 120 60 49 100 237 278 105 102 56 76 87 36 348 303 181 154 168 213 233 199 185 303 292 252 237 263 310 307 300 307 305 307 324 320 304 297 301 310 319 326 332 332 329 332 333 327 323 318 313 312 310 309 308 306
177 178 176 177 181 181 180 175 169 165 161 158 157 153 149 147 145 142 140 141 142 145 149 147 144 144 143 144 141 137 139 140 141 109 130 235 305 84 136 183 176 136 84 320 301 321 291 225 202 253 234 210 286 294 304 286 257 243 255 273 298 301 290 299 316 311 301 298 300 308 320 332 334 331 335 335 331 328 322 314 314 314 310 308 306
180 181 182 185 187 186 186 183 176 173 170 168 165 160 156 155 153 151 149 149 150 152 154 152 152 154 158 163 161 160 165 163 169 175 165 196 267 241 208 225 219 178 171 263 282 303 298 288 263 280 309 308 298 301 311 312 309 301 297 301 317 323 311 296 309 316 308 302 301 311 323 331 331 327 327 330 331 329 325 318 319 322 317 310 308
188 189 189 192 194 192 192 191 187 182 178 177 175 168 164 161 158 157 156 156 158 161 163 165 168 170 174 182 185 184 191 198 205 211 206 214 254 264 249 265 272 220 178 245 275 268 273 287 286 273 282 289 296 307 305 308 314 311 313 318 322 327 326 317 317 318 311 300 294 307 319 322 322 320 317 320 325 324 319 317 321 322 319 315 315
196 196 196 198 199 199 198 197 194 191 186 185 181 176 173 170 165 163 159 160 165 165 170 179 183 186 193 201 212 220 227 233 230 235 239 232 239 255 257 267 280 274 237 249 272 275 267 274 281 275 276 278 265 265 292 309 301 296 316 336 326 319 321 320 316 314 312 304 293 299 311 314 318 319 314 312 317 315 305 307 317 317 314 316 321
204 205 204 203 203 204 204 201 198 195 192 191 187 182 181 175 170 168 166 169 172 172 179 188 188 196 209 217 238 250 254 255 246 242 249 242 234 245 252 254 260 262 257 260 274 281 275 274 277 273 280 289 273 250 277 304 303 309 332 338 321 312 314 315 314 314 315 312 301 299 306 311 316 318 314 310 311 308 299 304 313 308 303 310 318
211 212 212 208 205 207 207 204 201 197 195 195 191 187 185 178 175 172 167 163 161 161 173 187 200 221 226 213 241 264 263 259 251 242 244 245 241 244 250 255 259 253 245 250 261 267 268 270 273 272 272 277 277 284 303 309 312 323 327 316 308 309 312 312 312 314 317 315 308 301 302 306 311 310 306 302 302 301 302 307 306 293 291 301 309
219 219 221 217 211 210 209 205 202 197 196 197 193 189 184 180 180 178 169 163 163 158 136 63 263 255 260 259 257 254 252 259 262 257 250 249 246 243 243 247 252 243 233 242 254 257 260 267 275 281 284 282 283 296 309 306 307 310 306 303 304 307 308 307 308 312 316 316 311 305 303 305 307 305 300 297 296 295 297 296 284 279 287 294 301
231 227 227 223 216 215 214 209 203 198 196 197 192 187 181 174 174 176 175 182 195 207 243 286 292 280 275 278 265 247 249 262 270 268 261 256 250 242 239 239 238 229 224 236 251 257 262 270 276 282 288 288 285 288 293 296 301 310 309 304 300 299 303 306 306 307 311 315 312 305 301 302 304 301 299 297 294 291 287 281 274 275 281 288 298
234 232 230 226 221 220 217 213 207 200 198 199 194 188 185 181 179 186 193 208 231 249 260 267 272 271 261 248 222 220 238 239 239 253 262 260 255 246 239 235 232 227 224 230 239 255 283 285 281 287 301 304 295 294 305 310 317 318 307 298 295 298 302 304 302 301 304 309 307 300 296 298 300 299 296 296 295 293 289 284 280 280 282 290 300
232 231 229 227 225 222 217 217 211 200 200 203 198 194 194 195 200 208 211 222 234 240 244 247 252 256 252 232 204 206 221 222 221 231 240 243 247 248 242 233 231 230 228 231 234 236 251 295 303 300 322 335 333 342 334 305 302 304 297 294 297 300 300 300 299 299 300 301 298 292 290 293 295 295 294 295 297 296 293 289 287 287 289 294 300
229 225 224 226 229 224 216 215 210 202 204 208 203 200 203 210 219 222 216 215 211 199 201 220 234 242 242 233 220 209 197 199 204 195 207 232 247 245 231 223 228 232 231 234 239 239 245 261 285 299 328 341 335 346 328 299 299 301 295 295 298 298 295 294 292 291 291 290 287 285 287 290 293 293 293 296 298 297 295 293 292 292 294 296 298
226 223 223 227 234 229 216 212 213 214 217 216 214 218 225 228 229 227 223 219 208 198 201 214 224 227 223 220 217 196 175 185 194 181 184 208 220 198 182 179 186 195 198 201 199 199 208 213 217 232 249 268 285 293 289 289 293 293 292 292 292 291 288 287 287 287 287 288 288 286 287 291 294 292 292 295 297 297 296 294 294 294 296 298 297
229 227 227 229 234 231 221 218 220 222 224 225 229 238 244 242 236 232 229 220 206 196 194 200 204 198 193 203 197 172 169 190 193 179 176 171 165 163 158 152 150 164 186 194 192 192 199 211 225 240 256 268 278 281 280 281 281 285 292 292 289 289 289 289 291 292 293 295 295 292 291 293 295 294 294 297 297 297 296 294 293 292 290 291 293
234 231 230 231 233 229 225 225 227 229 233 234 234 237 240 238 235 231 224 214 204 191 180 183 187 178 176 186 178 159 167 178 171 172 171 164 162 165 160 155 153 164 195 207 207 213 227 241 253 263 272 279 286 289 291 290 287 290 296 295 294 298 296 293 293 294 297 298 297 296 293 293 296 297 298 300 298 296 295 295 295 294 290 290 295
243 241 239 238 235 231 229 230 231 235 236 234 231 228 225 228 229 223 214 207 199 183 171 172 178 185 188 180 160 153 165 165 158 164 163 158 167 176 167 167 168 160 175 201 216 236 256 270 279 287 293 297 300 301 302 302 302 307 307 297 298 302 299 295 298 301 302 299 300 307 303 297 301 303 303 304 300 296 296 298 300 300 297 296 297
250 247 245 242 240 237 235 234 235 236 233 230 229 223 218 221 220 214 207 199 184 171 166 163 164 182 191 180 165 165 167 158 155 160 160 159 176 186 178 190 206 193 168 168 186 243 286 294 300 305 308 309 308 310 311 310 309 311 308 299 297 296 296 299 302 303 302 299 307 322 318 304 304 306 305 304 300 297 299 302 303 302 301 303 302
Height
822 822 822 823 824 826 828 829 829 830 829 829 828 830 832 833 831 829 828 828 827 827 828 828 829 829 829 830 831 832 833 835 837 838 840 841 841 840 840 840 841 841 842 843 844 845 846 846 846 846 846 847 847 847 847 848 848 848 849 849 849 849 849 849 849 849 848 848 848 848 848 848 848 849 849 849 849 849 850 850 849 849 850 850 850
821 821 821 822 823 824 826 827 828 828 828 828 829 830 832 833 832 830 829 828 828 828 828 828 828 829 830 830 832 833 833 835 836 838 841 841 841 841 841 841 841 841 842 843 844 845 846 846 846 847 847 847 847 847 848 848 849 849 849 849 849 849 849 849 849 849 849 849 849 849 849 849 849 849 849 849 850 850 850 850 850 850 850 850 850
820 820 821 821 822 823 824 826 827 827 827 827 829 830 831 832 832 831 829 828 828 828 828 828 828 829 830 831 832 834 834 834 835 838 841 841 841 841 841 841 841 842 842 843 844 844 845 846 846 847 847 848 848 848 848 848 849 849 850 850 850 850 849 850 849 849 849 849 849 849 849 849 849 849 849 850 850 850 850 850 851 851 851 851 850
820 820 820 821 822 823 824 825 826 826 826 827 828 830 830 830 832 832 830 829 829 828 828 828 828 828 830 831 832 833 834 835 836 837 840 840 841 841 841 841 842 842 842 843 844 844 845 846 846 847 847 848 848 849 849 849 850 850 850 850 850 850 850 850 850 850 850 850 850 849 850 849 850 850 850 850 850 850 850 851 851 851 851 851 851
819 820 820 821 821 822 823 824 825 825 826 827 828 830 829 829 832 833 831 830 830 829 828 828 829 829 830 832 832 833 834 835 836 837 838 839 840 840 840 841 842 842 843 843 844 845 845 846 846 847 847 848 848 849 849 850 850 851 851 851 851 851 851 850 850 850 850 850 850 850 850 850 850 850 850 850 850 851 851 851 851 851 852 851 852
819 820 820 821 821 821 823 824 824 824 825 827 828 829 829 829 832 832 831 831 830 830 829 829 830 830 831 832 832 833 834 835 836 837 838 839 840 841 841 841 842 843 843 844 845 845 846 846 846 847 847 848 848 849 849 850 851 851 851 851 851 851 851 851 851 850 850 850 850 850 850 850 850 850 850 850 850 851 851 851 851 851 852 852 852
817 819 819 820 820 820 822 823 823 823 825 827 829 829 829 830 830 832 832 831 830 830 829 830 831 831 832 833 833 833 835 835 836 837 838 838 840 840 841 841 842 843 844 845 845 846 846 847 847 848 848 848 848 849 849 850 851 851 851 851 851 851 851 851 851 851 850 850 850 850 850 850 850 850 850 850 850 851 851 851 852 852 852 852 852
817 817 819 819 819 819 821 821 822 823 824 827 828 829 830 830 830 832 833 831 830 830 829 830 831 832 833 834 834 834 835 836 836 837 838 838 840 840 841 841 842 843 844 844 845 846 847 847 847 848 848 849 849 849 849 850 851 851 852 851 851 852 851 851 851 851 851 850 850 850 850 850 850 850 850 850 851 851 851 851 852 852 852 852 852
816 817 818 818 818 818 819 820 821 822 824 826 827 829 830 830 831 832 833 832 830 830 830 831 832 833 834 835 835 835 835 836 837 837 838 839 839 840 840 841 841 843 843 844 844 845 846 847 847 848 849 849 849 849 850 850 851 851 851 851 851 851 851 851 851 851 851 850 850 850 850 850 851 851 851 851 851 851 851 851 851 852 852 852 852
816 816 817 818 817 817 819 820 820 821 822 825 826 828 830 830 831 832 833 833 831 831 831 831 832 833 833 835 836 836 837 837 837 837 838 838 839 840 840 841 841 842 843 844 844 844 845 846 847 848 848 849 849 849 850 850 850 851 851 851 851 851 851 851 851 851 851 850 850 850 850 850 850 851 851 851 851 851 851 851 851 852 852 852 852
815 816 817 817 817 817 818 820 819 819 820 823 825 828 831 830 830 833 833 833 831 832 832 831 832 833 834 835 836 837 838 838 838 838 838 838 839 840 840 841 841 842 843 844 845 845 845 845 846 847 848 848 849 849 849 850 850 850 850 850 851 851 851 851 851 851 850 850 850 850 850 850 850 850 851 851 851 851 851 851 851 852 852 852 852
815 816 816 816 816 816 818 820 820 818 819 822 824 827 830 829 830 834 834 833 833 832 832 832 832 834 835 835 836 837 838 838 838 838 838 839 839 839 840 841 841 842 843 844 845 845 845 845 845 846 847 847 848 848 849 849 850 850 850 850 850 850 850 850 850 850 850 850 850 850 850 850 850 850 850 850 851 851 851 851 851 851 851 851 852
815 815 815 816 816 816 819 821 820 819 818 820 823 826 828 829 832 836 835 834 834 832 832 832 833 836 836 835 836 837 838 838 838 838 839 839 839 840 840 841 842 842 843 844 845 845 845 845 845 846 846 846 848 848 849 850 850 850 850 850 850 850 850 850 849 849 849 849 849 849 849 849 850 850 850 850 850 851 851 851 850 850 851 851 851
814 814 815 815 815 816 819 820 820 819 817 819 822 824 827 830 833 835 833 832 832 831 832 832 833 835 835 835 836 837 838 838 838 839 839 839 840 840 841 841 842 842 843 844 845 845 846 847 846 846 846 847 848 849 850 851 850 850 850 850 850 849 849 849 849 848 848 848 848 848 848 849 849 849 849 849 850 850 850 850 850 850 851 851 851
815 815 815 815 816 817 818 820 821 820 818 818 820 823 826 829 832 832 830 829 829 829 831 832 833 833 834 835 835 837 839 839 839 839 839 839 840 840 841 841 842 843 843 844 845 846 847 847 847 847 847 847 849 851 852 851 851 851 851 850 850 850 849 849 848 848 848 847 847 847 847 848 848 848 848 849 849 849 849 850 850 850 850 850 850
816 816 816 816 816 817 819 821 822 821 821 820 820 823 825 826 828 828 827 826 826 828 830 831 833 833 834 835 835 836 839 840 839 840 840 840 840 841 841 842 842 843 844 844 845 846 847 847 847 847 847 848 850 851 852 852 852 852 851 851 850 850 849 848 848 848 847 847 847 847 847 847 847 847 847 848 848 849 849 849 849 850 850 850 850
817 817 817 816 817 818 819 821 821 822 824 824 823 823 823 824 825 825 825 825 826 827 828 830 832 833 834 835 836 837 838 839 839 840 840 840 840 841 842 842 843 843 844 844 845 846 847 847 848 848 848 849 850 851 852 853 853 852 851 851 850 849 849 848 848 847 846 846 846 846 846 846 846 846 846 846 847 848 848 849 849 849 849 849 849
818 818 818 818 818 818 819 820 821 822 823 824 824 823 822 823 824 824 824 825 826 827 828 829 831 832 833 834 834 834 836 837 839 841 841 840 840 841 842 843 844 844 844 845 846 846 847 848 848 848 849 850 851 852 853 853 853 852 851 851 850 849 849 848 847 846 846 845 845 845 845 845 845 845 845 845 846 846 847 847 848 848 848 849 849
818 819 819 819 819 819 819 820 821 821 821 822 822 822 822 823 823 823 825 826 826 827 828 829 830 830 832 832 832 832 834 836 838 840 841 842 842 843 844 844 845 845 846 846 847 847 848 848 849 850 850 851 852 853 854 854 853 852 852 851 850 850 849 848 847 846 846 845 845 844 844 844 844 844 844 844 844 845 845 846 846 847 847 848 848
819 819 820 820 820 820 820 820 820 821 821 821 822 822 823 823 823 824 825 826 827 827 828 829 829 830 831 832 834 834 835 836 839 842 842 842 843 844 845 846 847 847 847 848 848 848 849 849 849 850 851 852 853 854 854 854 853 852 852 851 850 850 849 848 847 846 846 845 845 845 844 843 843 843 843 843 843 843 844 845 845 846 847 848 847
820 820 820 821 821 821 821 821 821 821 820 821 822 822 823 824 824 825 826 826 827 828 828 829 829 830 830 832 833 835 837 838 840 842 841 840 842 844 846 847 848 848 849 849 849 849 850 850 850 851 852 853 853 854 854 854 853 853 852 851 851 850 849 848 847 847 846 846 845 845 844 844 843 842 842 842 843 843 843 844 844 845 846 846 846
821 821 822 822 822 822 822 822 822 822 821 822 822 823 823 824 825 826 827 827 828 828 829 830 830 831 830 831 832 834 835 836 839 841 839 837 841 843 845 846 848 849 850 849 850 850 850 851 851 851 852 853 854 854 854 854 853 853 852 852 851 850 849 848 848 847 847 846 846 845 844 844 843 843 842 842 842 842 843 843 843 843 843 843 844
822 822 823 823 823 823 823 823 823 823 823 823 824 824 824 824 825 826 827 828 829 829 830 830 831 831 831 832 832 833 833 834 838 839 836 836 839 842 843 845 847 849 850 850 850 850 850 851 852 852 853 854 854 854 854 853 853 853 853 852 851 851 850 849 849 848 848 847 847 846 845 844 844 843 843 843 843 842 842 842 842 842 842 841 842
823 824 824 825 825 824 824 824 824 824 824 825 825 825 825 825 826 827 828 828 829 830 831 831 832 832 833 834 834 834 834 834 836 836 834 836 839 839 841 843 846 848 850 850 850 851 851 852 852 853 853 854 855 855 854 854 853 853 853 852 852 852 851 850 850 849 849 848 848 847 846 845 845 844 843 843 843 843 843 842 841 841 841 841 842
824 825 825 826 826 825 825 825 825 825 825 825 825 826 826 826 826 827 828 828 829 830 831 832 833 833 834 835 834 835 836 836 836 836 835 837 838 837 839 842 844 847 849 849 850 851 852 852 853 853 854 854 855 855 855 854 854 853 853 853 853 852 852 852 851 851 850 849 849 848 847 847 846 845 845 844 844 843 843 842 841 841 841 841 841
825 826 826 826 826 826 826 826 826 825 825 826 826 826 827 827 827 828 829 829 830 831 832 833 834 835 835 836 836 837 837 838 838 838 838 838 838 838 839 842 844 844 846 847 849 851 852 853 854 854 855 855 855 856 856 855 855 854 854 853 854 853 853 853 852 852 851 850 850 849 848 848 847 847 846 846 845 844 843 843 842 841 841 841 841
826 827 827 827 827 827 827 827 826 826 826 826 827 827 828 828 829 830 830 831 832 833 834 835 836 836 837 837 838 838 839 839 839 839 839 839 839 840 841 843 844 844 844 846 848 851 853 854 855 855 856 856 857 857 856 856 856 855 855 854 854 854 854 853 853 852 852 851 851 850 849 848 848 847 847 846 846 845 844 843 842 842 841 841 841
827 828 828 829 829 829 828 828 827 827 827 827 828 828 829 829 831 832 832 833 834 834 835 836 837 838 838 839 839 840 840 840 840 840 840 840 841 842 842 843 844 845 846 847 849 852 853 854 855 856 857 857 857 857 857 857 856 856 856 856 855 855 854 854 853 853 852 852 851 851 850 849 848 848 847 847 846 845 844 844 843 842 841 841 840
828 829 829 830 830 830 829 829 829 828 828 828 828 829 830 831 832 833 834 834 835 836 837 838 838 839 839 840 840 841 841 842 842 843 842 842 843 843 843 842 842 843 845 847 850 852 854 854 855 856 857 857 858 858 858 858 857 857 857 857 855 855 855 854 854 853 853 852 851 851 850 849 849 848 847 847 846 845 844 844 843 842 841 841 840
830 829 829 830 831 831 831 830 830 830 829 829 830 830 831 832 833 834 835 836 837 837 838 839 839 840 840 841 841 842 843 843 844 844 845 845 845 845 845 844 844 843 842 846 851 853 855 856 856 857 858 858 858 858 858 858 857 857 858 857 856 855 855 854 854 853 853 852 851 851 850 849 849 848 847 847 846 845 844 844 843 843 842 841 840
830 830 830 830 832 832 832 831 831 830 830 830 831 831 832 832 833 834 836 837 838 838 839 840 841 841 842 842 843 843 844 845 845 846 846 846 846 846 846 846 847 846 844 846 851 854 856 857 858 858 858 859 859 859 859 859 858 857 858 858 857 856 855 854 854 854 853 852 852 851 850 849 849 848 847 846 845 845 844 843 843 842 841 841 840
830 830 830 831 832 833 833 832 832 831 831 831 832 832 832 833 834 835 836 837 838 839 840 841 842 842 843 843 844 845 845 845 846 847 847 847 847 847 848 848 849 849 848 849 851 855 858 858 859 859 859 859 859 859 859 859 858 858 858 859 858 856 855 854 854 854 854 853 852 852 851 850 849 848 847 846 845 844 843 842 842 841 840 839 838
830 829 830 831 832 833 833 833 832 832 832 832 833 833 833 834 834 836 837 838 839 840 841 842 842 843 844 844 845 846 846 846 847 847 848 848 849 849 849 849 850 851 851 851 853 856 858 859 859 859 859 860 859 859 860 859 859 859 858 859 858 857 856 855 854 854 854 854 853 852 851 850 849 848 847 846 845 843 842 841 840 839 839 838 837
829 829 830 831 832 833 833 833 833 833 833 833 834 834 834 834 835 836 837 838 839 840 841 842 843 844 844 845 846 847 847 847 847 847 848 848 848 848 849 849 851 852 852 852 852 854 857 859 860 860 860 860 859 859 860 860 860 860 859 859 858 858 858 857 855 854 853 853 853 852 851 850 849 848 847 845 844 843 842 840 839 838 837 836 835
829 829 829 831 832 832 833 834 833 833 834 834 835 835 835 835 836 837 838 839 840 841 842 842 843 844 845 846 847 847 848 848 848 848 849 849 847 848 850 851 852 853 853 853 852 853 855 857 858 859 859 860 860 859 860 860 860 860 859 859 859 859 858 858 857 855 853 853 852 852 851 849 848 847 846 845 843 842 841 839 838 837 836 835 834
828 829 830 830 831 832 833 833 833 834 834 835 835 835 836 836 837 838 838 839 841 841 842 843 843 845 845 846 847 848 848 849 849 849 850 850 849 849 851 853 853 854 855 854 854 853 854 855 856 857 857 858 859 859 860 859 858 858 857 857 857 858 857 857 857 855 853 852 851 851 850 849 847 846 845 843 842 841 839 838 837 836 835 834 832
827 828 829 830 831 832 832 833 833 834 835 835 836 836 836 837 837 838 839 840 841 841 842 843 844 845 845 846 847 848 848 849 849 850 850 851 850 851 851 852 852 853 855 855 854 855 855 855 855 857 857 857 857 858 859 859 858 857 856 855 855 855 856 856 855 854 853 851 849 849 848 846 845 844 843 842 841 839 838 837 836 835 833 832 831
827 828 829 830 830 831 832 832 832 833 834 835 835 836 836 837 837 838 839 840 840 841 842 843 844 845 845 846 847 847 848 849 849 850 850 851 851 852 852 852 851 852 854 855 854 855 856 856 855 856 858 857 857 857 858 858 859 858 856 855 855 855 856 855 854 854 853 851 849 848 847 846 845 843 841 840 839 838 836 835 834 833 831 830 830
826 827 828 829 830 830 831 831 832 832 833 834 835 835 836 837 837 838 838 839 840 841 842 843 843 844 845 846 847 847 848 849 850 850 851 851 852 852 852 853 852 852 854 854 854 854 854 855 855 856 856 856 857 857 857 856 857 857 855 855 856 856 856 855 854 853 852 850 848 847 846 845 844 843 841 839 837 836 835 834 833 832 830 829 828
825 826 827 828 829 829 830 830 831 831 832 833 834 834 835 836 837 838 838 839 839 840 842 842 843 844 845 845 846 847 848 848 849 850 850 851 851 852 852 853 853 853 854 854 854 854 853 853 854 854 855 855 855 856 856 856 856 857 856 857 857 857 856 854 853 852 850 849 847 846 846 844 843 841 839 837 836 834 833 832 831 830 828 827 827
824 825 825 826 827 828 828 829 830 830 831 832 833 834 834 835 836 837 838 839 839 840 841 842 842 843 844 845 846 847 847 848 848 849 850 850 850 851 852 852 853 853 853 854 854 854 853 852 852 852 853 853 853 854 855 856 856 857 858 859 858 857 855 854 852 851 850 848 846 845 845 844 842 841 839 837 835 833 832 830 829 827 827 826 826
823 823 824 825 826 827 827 828 828 829 830 831 831 832 833 834 836 836 837 838 839 839 840 841 842 843 845 846 846 847 847 847 848 848 849 849 849 850 850 851 851 852 853 853 853 853 852 851 851 851 851 852 852 853 854 855 856 857 857 858 858 856 855 852 850 850 849 848 846 844 843 842 841 839 837 836 834 832 831 830 828 826 825 825 825
821 822 823 823 824 825 826 826 827 828 829 829 829 831 831 833 834 835 836 837 837 838 839 839 841 842 845 847 847 846 846 846 847 847 847 847 847 847 848 849 850 851 851 852 852 852 852 851 850 851 851 851 851 853 854 855 855 856 857 857 857 855 854 851 849 848 848 848 845 843 841 840 839 837 835 834 833 831 830 829 827 826 825 824 824
819 820 822 822 822 823 824 824 825 826 827 827 828 829 830 831 832 833 835 835 835 837 837 838 839 841 843 845 846 845 845 845 845 846 845 845 845 846 846 847 848 849 849 850 851 851 852 851 851 851 851 851 851 853 854 854 855 856 856 856 856 854 852 851 849 847 847 847 845 842 839 837 837 835 833 832 831 829 828 827 825 824 823 822 821
818 819 820 820 821 821 822 822 823 824 825 825 826 827 828 829 830 831 832 833 833 834 835 837 839 840 841 843 844 844 844 844 844 845 844 843 844 844 845 845 846 847 847 848 849 850 851 852 852 852 852 852 853 853 854 854 855 856 856 855 854 853 852 851 849 847 846 845 844 840 837 835 835 833 831 830 829 827 826 825 823 821 820 819 819
817 817 818 819 819 820 820 820 821 822 824 824 825 826 826 827 828 828 830 831 832 831 832 835 838 839 840 841 841 842 842 842 843 843 842 842 842 843 843 844 845 845 846 847 848 849 851 852 852 853 853 854 854 854 854 855 855 855 855 854 853 852 851 849 848 846 844 843 842 839 835 833 833 831 829 828 827 825 824 823 821 819 818 817 816
815 816 816 818 818 818 818 818 819 820 821 822 824 825 824 825 826 827 828 830 830 828 829 833 836 838 838 839 839 839 840 840 840 841 842 842 842 842 843 844 845 845 846 846 847 849 850 851 852 853 853 853 854 854 854 854 855 855 854 854 853 851 849 847 845 843 841 840 840 837 833 831 831 829 827 826 825 823 822 821 819 817 816 814 814
814 814 815 816 817 817 817 817 818 818 819 820 821 822 822 823 824 825 826 827 828 827 828 832 835 836 836 837 837 837 837 837 838 839 840 841 842 842 843 844 845 845 845 846 847 848 849 850 850 851 851 852 852 853 853 853 854 853 853 852 851 849 847 844 842 841 839 838 838 836 832 830 830 828 825 825 824 821 820 818 817 815 814 813 812
812 812 812 813 814 814 814 815 815 816 817 818 818 819 819 819 820 822 823 825 825 825 826 830 833 833 833 835 836 836 836 836 837 838 839 840 841 842 843 844 845 845 845 846 847 847 848 849 849 850 850 851 851 851 852 852 852 852 851 851 849 848 846 843 841 839 838 837 836 835 832 829 829 827 825 823 822 820 818 816 815 813 811 810 810
810 810 810 810 810 810 810 811 812 813 814 814 814 815 816 816 817 819 821 822 823 823 825 828 830 831 832 834 834 834 834 835 836 837 838 839 841 842 843 844 845 845 845 846 846 847 847 847 848 848 848 849 849 849 849 850 850 850 850 849 849 847 846 843 841 839 837 836 835 834 831 829 829 827 824 822 820 818 817 815 813 811 809 808 806
807 808 807 807 807 807 807 808 808 809 810 810 810 811 813 814 815 817 819 820 820 821 823 826 829 830 832 833 832 832 833 834 835 837 838 839 840 841 842 843 843 844 844 845 846 846 847 847 847 847 847 847 847 847 847 847 848 848 847 847 847 847 845 843 841 839 837 835 835 834 832 830 829 827 825 822 817 815 815 814 812 811 809 807 805